1 Minute Report
Date Time Wind Direction Wind Speed Wind Gust Wind Variable Altimeter Temperature Dewpoint Relative Humidity Visibility Ceiling Precip Present Weather Density Alt Wind Chill Heat Index
17/11/24 18:30 210 08 N/A N/A 29.86 48(F), 9(C) 22(F), -6(C) 34% 10 CLR N/A N/A N/A 44 F N/A 3688
17/11/24 18:29 210 06 N/A N/A 29.86 48(F), 9(C) 22(F), -6(C) 34% 10 CLR N/A N/A N/A 45 F N/A 3687
17/11/24 18:28 210 07 N/A N/A 29.86 48(F), 9(C) 22(F), -6(C) 34% 10 CLR N/A N/A N/A 45 F N/A 3686
17/11/24 18:27 200 08 N/A N/A 29.86 48(F), 9(C) 22(F), -6(C) 34% 10 CLR N/A N/A N/A 44 F N/A 3685
17/11/24 18:26 200 09 N/A N/A 29.86 48(F), 9(C) 23(F), -5(C) 37% 10 CLR N/A N/A N/A 44 F N/A 3684
17/11/24 18:25 200 09 N/A N/A 29.86 48(F), 9(C) 23(F), -5(C) 37% 10 CLR N/A N/A N/A 44 F N/A 3683
17/11/24 18:24 200 08 N/A N/A 29.86 48(F), 9(C) 23(F), -5(C) 37% 10 CLR N/A N/A N/A 44 F N/A 3682
17/11/24 18:23 180 08 N/A N/A 29.86 48(F), 9(C) 23(F), -5(C) 37% 10 CLR N/A N/A N/A 44 F N/A 3681
17/11/24 18:22 180 08 N/A N/A 29.86 48(F), 9(C) 23(F), -5(C) 37% 10 CLR N/A N/A N/A 44 F N/A 3680
17/11/24 18:21 180 09 N/A N/A 29.86 48(F), 9(C) 22(F), -6(C) 34% 10 CLR N/A N/A N/A 44 F N/A 3679
17/11/24 18:20 170 09 N/A N/A 29.86 48(F), 9(C) 23(F), -5(C) 37% 10 CLR N/A N/A N/A 44 F N/A 3678
17/11/24 18:19 170 09 N/A N/A 29.86 48(F), 9(C) 23(F), -5(C) 37% 10 CLR N/A N/A N/A 44 F N/A 3677
17/11/24 18:18 170 07 N/A N/A 29.86 48(F), 9(C) 22(F), -6(C) 34% 10 CLR N/A N/A N/A 45 F N/A 3676
17/11/24 18:17 170 08 N/A N/A 29.86 48(F), 9(C) 22(F), -6(C) 34% 10 CLR N/A N/A N/A 44 F N/A 3675
17/11/24 18:16 170 09 N/A N/A 29.86 48(F), 9(C) 22(F), -6(C) 34% 10 CLR N/A N/A N/A 44 F N/A 3674
17/11/24 18:15 170 09 N/A N/A 29.86 47(F), 8(C) 22(F), -6(C) 36% 10 CLR N/A N/A N/A 43 F N/A 3673
17/11/24 18:14 170 09 N/A N/A 29.86 47(F), 8(C) 22(F), -6(C) 36% 10 CLR N/A N/A N/A 43 F N/A 3672
17/11/24 18:13 170 09 14 N/A 29.86 48(F), 9(C) 22(F), -6(C) 34% 10 CLR N/A N/A N/A 44 F N/A 3671
17/11/24 18:12 170 09 14 N/A 29.86 48(F), 9(C) 22(F), -6(C) 34% 10 CLR N/A N/A N/A 44 F N/A 3670
17/11/24 18:11 170 09 14 N/A 29.86 48(F), 9(C) 22(F), -6(C) 34% 10 CLR N/A N/A N/A 44 F N/A 3669
17/11/24 18:10 170 08 14 N/A 29.86 48(F), 9(C) 21(F), -6(C) 34% 10 CLR N/A N/A N/A 44 F N/A 3668
17/11/24 18:09 170 09 14 N/A 29.86 48(F), 9(C) 21(F), -6(C) 34% 10 CLR N/A N/A N/A 44 F N/A 3667
17/11/24 18:08 170 10 14 N/A 29.86 48(F), 9(C) 21(F), -6(C) 34% 10 CLR N/A N/A N/A 44 F N/A 3666
17/11/24 18:07 170 07 14 N/A 29.86 48(F), 9(C) 21(F), -6(C) 34% 10 CLR N/A N/A N/A 45 F N/A 3665
17/11/24 18:06 190 07 14 N/A 29.86 48(F), 9(C) 21(F), -6(C) 34% 10 CLR N/A N/A N/A 45 F N/A 3664
17/11/24 18:05 200 09 14 N/A 29.86 48(F), 9(C) 21(F), -6(C) 34% 10 CLR N/A N/A N/A 44 F N/A 3663
17/11/24 18:04 200 10 14 N/A 29.86 47(F), 8(C) 22(F), -6(C) 36% 10 CLR N/A N/A N/A 42 F N/A 3662
17/11/24 18:03 200 08 14 170V230 29.86 47(F), 8(C) 22(F), -6(C) 36% 10 CLR N/A N/A N/A 43 F N/A 3661
17/11/24 18:02 210 07 14 170V230 29.86 47(F), 8(C) 22(F), -6(C) 36% 10 CLR N/A N/A N/A 44 F N/A 3660
17/11/24 18:01 200 08 14 170V230 29.86 47(F), 8(C) 22(F), -6(C) 36% 10 CLR N/A N/A N/A 43 F N/A 3659
17/11/24 18:00 190 08 14 N/A 29.86 47(F), 8(C) 22(F), -6(C) 36% 10 CLR N/A N/A N/A 43 F N/A 3658
17/11/24 17:59 190 09 14 N/A 29.86 47(F), 8(C) 21(F), -6(C) 36% 10 CLR N/A N/A N/A 43 F N/A 3657
17/11/24 17:58 180 10 14 N/A 29.86 47(F), 8(C) 21(F), -6(C) 36% 10 CLR N/A N/A N/A 42 F N/A 3656
17/11/24 17:57 170 09 14 N/A 29.86 47(F), 8(C) 22(F), -6(C) 36% 10 CLR N/A N/A N/A 43 F N/A 3655
17/11/24 17:56 170 11 14 N/A 29.86 47(F), 8(C) 22(F), -6(C) 36% 10 CLR N/A N/A N/A 42 F N/A 3654
17/11/24 17:55 170 12 N/A N/A 29.86 47(F), 8(C) 22(F), -6(C) 36% 10 CLR N/A N/A N/A 42 F N/A 3653
17/11/24 17:54 170 11 14 N/A 29.87 47(F), 8(C) 22(F), -6(C) 36% 10 CLR N/A N/A N/A 42 F N/A 3652
17/11/24 17:53 170 12 N/A N/A 29.86 47(F), 8(C) 22(F), -6(C) 36% 10 CLR N/A N/A N/A 42 F N/A 3651
17/11/24 17:52 170 12 N/A N/A 29.86 47(F), 8(C) 22(F), -6(C) 36% 10 CLR N/A N/A N/A 42 F N/A 3650
17/11/24 17:51 170 10 14 N/A 29.87 47(F), 8(C) 22(F), -6(C) 36% 10 CLR N/A N/A N/A 42 F N/A 3649
17/11/24 17:50 170 10 14 N/A 29.87 47(F), 8(C) 22(F), -6(C) 36% 10 CLR N/A N/A N/A 42 F N/A 3648
17/11/24 17:49 170 11 14 N/A 29.87 47(F), 8(C) 22(F), -6(C) 36% 10 CLR N/A N/A N/A 42 F N/A 3647
17/11/24 17:48 170 10 14 N/A 29.87 47(F), 8(C) 22(F), -6(C) 36% 10 CLR N/A N/A N/A 42 F N/A 3646
17/11/24 17:47 170 09 14 N/A 29.87 47(F), 8(C) 22(F), -6(C) 36% 10 CLR N/A N/A N/A 43 F N/A 3645
17/11/24 17:46 170 10 14 N/A 29.87 47(F), 8(C) 22(F), -6(C) 36% 10 CLR N/A N/A N/A 42 F N/A 3644
17/11/24 17:45 170 09 14 N/A 29.87 47(F), 8(C) 22(F), -6(C) 36% 10 CLR N/A N/A N/A 43 F N/A 3643
17/11/24 17:44 190 07 N/A 160V220 29.87 47(F), 8(C) 22(F), -6(C) 36% 10 CLR N/A N/A N/A 44 F N/A 3642
17/11/24 17:43 200 06 N/A N/A 29.87 47(F), 8(C) 22(F), -6(C) 36% 10 CLR N/A N/A N/A 44 F N/A 3641
17/11/24 17:42 190 07 N/A N/A 29.87 47(F), 8(C) 22(F), -6(C) 36% 10 CLR N/A N/A N/A 44 F N/A 3640
17/11/24 17:41 180 07 N/A N/A 29.87 47(F), 8(C) 22(F), -6(C) 36% 10 CLR N/A N/A N/A 44 F N/A 3639
17/11/24 17:40 190 07 N/A N/A 29.87 47(F), 8(C) 23(F), -5(C) 39% 10 CLR N/A N/A N/A 44 F N/A 3638
17/11/24 17:39 190 07 N/A 160V220 29.87 47(F), 8(C) 23(F), -5(C) 39% 10 CLR N/A N/A N/A 44 F N/A 3637
17/11/24 17:38 180 09 N/A N/A 29.87 47(F), 8(C) 23(F), -5(C) 39% 10 CLR N/A N/A N/A 43 F N/A 3636
17/11/24 17:37 170 09 N/A N/A 29.87 47(F), 8(C) 23(F), -5(C) 39% 10 CLR N/A N/A N/A 43 F N/A 3635
17/11/24 17:36 170 07 N/A N/A 29.87 47(F), 8(C) 24(F), -4(C) 42% 10 CLR N/A N/A N/A 44 F N/A 3634
17/11/24 17:35 200 05 N/A N/A 29.87 47(F), 8(C) 23(F), -5(C) 39% 10 CLR N/A N/A N/A 45 F N/A 3633
17/11/24 17:34 200 05 N/A N/A 29.87 47(F), 8(C) 23(F), -5(C) 39% 10 CLR N/A N/A N/A 45 F N/A 3632
17/11/24 17:33 180 06 N/A N/A 29.87 47(F), 8(C) 22(F), -6(C) 36% 10 CLR N/A N/A N/A 44 F N/A 3631
17/11/24 17:32 180 05 N/A N/A 29.87 46(F), 8(C) 22(F), -6(C) 36% 10 CLR N/A N/A N/A 44 F N/A 3630
17/11/24 17:31 190 05 N/A N/A 29.87 46(F), 8(C) 22(F), -6(C) 36% 10 CLR N/A N/A N/A 44 F N/A 3629
17/11/24 17:30 200 05 N/A N/A 29.87 46(F), 8(C) 23(F), -5(C) 39% 10 CLR N/A N/A N/A 44 F N/A 3628
17/11/24 17:29 200 06 N/A N/A 29.87 46(F), 8(C) 23(F), -5(C) 39% 10 CLR N/A N/A N/A 43 F N/A 3627
17/11/24 17:28 180 07 N/A N/A 29.87 46(F), 8(C) 23(F), -5(C) 39% 10 CLR N/A N/A N/A 42 F N/A 3626
17/11/24 17:27 170 06 N/A N/A 29.87 46(F), 8(C) 23(F), -5(C) 39% 10 CLR N/A N/A N/A 43 F N/A 3625
17/11/24 17:26 190 06 N/A N/A 29.87 46(F), 8(C) 23(F), -5(C) 39% 10 CLR N/A N/A N/A 43 F N/A 3624
17/11/24 17:25 190 07 N/A N/A 29.87 46(F), 8(C) 23(F), -5(C) 39% 10 CLR N/A N/A N/A 42 F N/A 3623
17/11/24 17:24 170 07 N/A N/A 29.87 46(F), 8(C) 23(F), -5(C) 39% 10 CLR N/A N/A N/A 42 F N/A 3622
17/11/24 17:23 170 06 N/A N/A 29.88 46(F), 8(C) 23(F), -5(C) 39% 10 CLR N/A N/A N/A 43 F N/A 3621
17/11/24 17:22 170 07 N/A N/A 29.88 46(F), 8(C) 24(F), -4(C) 42% 10 CLR N/A N/A N/A 42 F N/A 3620
17/11/24 17:21 180 08 N/A 150V210 29.88 46(F), 8(C) 23(F), -5(C) 39% 10 CLR N/A N/A N/A 42 F N/A 3619
17/11/24 17:20 180 08 N/A 150V210 29.88 46(F), 8(C) 23(F), -5(C) 39% 10 CLR N/A N/A N/A 42 F N/A 3618
17/11/24 17:19 180 09 14 N/A 29.88 46(F), 8(C) 23(F), -5(C) 39% 10 CLR N/A N/A N/A 41 F N/A 3617
17/11/24 17:18 180 09 14 N/A 29.88 45(F), 7(C) 23(F), -5(C) 42% 10 CLR N/A N/A N/A 40 F N/A 3616
17/11/24 17:17 180 08 14 N/A 29.88 45(F), 7(C) 23(F), -5(C) 42% 10 CLR N/A N/A N/A 41 F N/A 3615
17/11/24 17:16 180 07 14 N/A 29.88 45(F), 7(C) 23(F), -5(C) 42% 10 CLR N/A N/A N/A 41 F N/A 3614
17/11/24 17:15 190 07 14 N/A 29.88 45(F), 7(C) 23(F), -5(C) 42% 10 CLR N/A N/A N/A 41 F N/A 3613
17/11/24 17:14 190 09 14 N/A 29.88 45(F), 7(C) 24(F), -4(C) 45% 10 CLR N/A N/A N/A 40 F N/A 3612
17/11/24 17:13 190 09 14 N/A 29.88 45(F), 7(C) 24(F), -4(C) 45% 10 CLR N/A N/A N/A 40 F N/A 3611
17/11/24 17:12 180 09 14 N/A 29.88 45(F), 7(C) 24(F), -4(C) 45% 10 CLR N/A N/A N/A 40 F N/A 3610
17/11/24 17:11 180 09 14 N/A 29.88 45(F), 7(C) 24(F), -4(C) 45% 10 CLR N/A N/A N/A 40 F N/A 3609
17/11/24 17:10 180 10 14 N/A 29.88 45(F), 7(C) 24(F), -4(C) 45% 10 CLR N/A N/A N/A 40 F N/A 3608
17/11/24 17:09 170 09 14 N/A 29.88 45(F), 7(C) 24(F), -4(C) 45% 10 CLR N/A N/A N/A 40 F N/A 3607
17/11/24 17:08 170 08 N/A N/A 29.88 45(F), 7(C) 24(F), -4(C) 45% 10 CLR N/A N/A N/A 41 F N/A 3606
17/11/24 17:07 170 09 N/A N/A 29.88 45(F), 7(C) 24(F), -4(C) 45% 10 CLR N/A N/A N/A 40 F N/A 3605
17/11/24 17:06 160 10 N/A N/A 29.88 45(F), 7(C) 24(F), -4(C) 45% 10 CLR N/A N/A N/A 40 F N/A 3604
17/11/24 17:05 160 10 N/A N/A 29.89 45(F), 7(C) 24(F), -4(C) 45% 10 CLR N/A N/A N/A 40 F N/A 3603
17/11/24 17:04 160 09 N/A N/A 29.89 45(F), 7(C) 24(F), -4(C) 45% 10 CLR N/A N/A N/A 40 F N/A 3602
17/11/24 17:03 170 09 N/A N/A 29.89 45(F), 7(C) 24(F), -4(C) 45% 10 CLR N/A N/A N/A 40 F N/A 3601
17/11/24 17:02 190 08 N/A N/A 29.89 45(F), 7(C) 24(F), -4(C) 45% 10 CLR N/A N/A N/A 41 F N/A 3600
17/11/24 17:01 180 07 N/A N/A 29.89 45(F), 7(C) 24(F), -4(C) 45% 10 CLR N/A N/A N/A 41 F N/A 3599
17/11/24 17:00 170 08 N/A N/A 29.89 45(F), 7(C) 25(F), -4(C) 45% 10 CLR N/A N/A N/A 41 F N/A 3598
17/11/24 16:59 170 08 N/A N/A 29.89 45(F), 7(C) 24(F), -4(C) 45% 10 CLR N/A N/A N/A 41 F N/A 3597
17/11/24 16:58 180 08 N/A 150V210 29.89 45(F), 7(C) 25(F), -4(C) 45% 10 CLR N/A N/A N/A 41 F N/A 3596
17/11/24 16:57 180 07 N/A N/A 29.89 45(F), 7(C) 25(F), -4(C) 45% 10 CLR N/A N/A N/A 41 F N/A 3595
17/11/24 16:56 180 08 N/A N/A 29.89 45(F), 7(C) 25(F), -4(C) 45% 10 CLR N/A N/A N/A 41 F N/A 3594
17/11/24 16:55 170 09 N/A N/A 29.89 44(F), 7(C) 25(F), -4(C) 45% 10 CLR N/A N/A N/A 39 F N/A 3593
17/11/24 16:54 170 10 N/A N/A 29.89 44(F), 7(C) 25(F), -4(C) 45% 10 CLR N/A N/A N/A 39 F N/A 3592
17/11/24 16:53 160 11 N/A N/A 29.89 44(F), 7(C) 25(F), -4(C) 45% 10 CLR N/A N/A N/A 38 F N/A 3591
17/11/24 16:52 160 10 N/A N/A 29.89 44(F), 7(C) 24(F), -4(C) 45% 10 CLR N/A N/A N/A 39 F N/A 3590
17/11/24 16:51 170 08 N/A N/A 29.89 44(F), 7(C) 24(F), -4(C) 45% 10 CLR N/A N/A N/A 39 F N/A 3589
17/11/24 16:50 180 06 N/A N/A 29.89 44(F), 7(C) 24(F), -4(C) 45% 10 CLR N/A N/A N/A 41 F N/A 3588
17/11/24 16:49 180 07 N/A N/A 29.89 44(F), 7(C) 24(F), -4(C) 45% 10 CLR N/A N/A N/A 40 F N/A 3587
17/11/24 16:48 190 07 N/A N/A 29.90 44(F), 7(C) 24(F), -4(C) 45% 10 CLR N/A N/A N/A 40 F N/A 3586
17/11/24 16:47 190 08 N/A N/A 29.90 44(F), 7(C) 24(F), -4(C) 45% 10 CLR N/A N/A N/A 39 F N/A 3585
17/11/24 16:46 180 10 N/A N/A 29.90 44(F), 7(C) 24(F), -4(C) 45% 10 CLR N/A N/A N/A 39 F N/A 3584
17/11/24 16:45 180 09 N/A N/A 29.90 44(F), 7(C) 24(F), -4(C) 45% 10 CLR N/A N/A N/A 39 F N/A 3583
17/11/24 16:44 170 08 N/A N/A 29.90 44(F), 7(C) 24(F), -4(C) 45% 10 CLR N/A N/A N/A 39 F N/A 3582
17/11/24 16:43 170 09 N/A N/A 29.90 44(F), 7(C) 25(F), -4(C) 45% 10 CLR N/A N/A N/A 39 F N/A 3581
17/11/24 16:42 170 10 N/A N/A 29.90 44(F), 7(C) 25(F), -4(C) 45% 10 CLR N/A N/A N/A 39 F N/A 3580
17/11/24 16:41 170 10 N/A N/A 29.90 44(F), 7(C) 25(F), -4(C) 45% 10 CLR N/A N/A N/A 39 F N/A 3579
17/11/24 16:40 170 10 N/A N/A 29.90 44(F), 7(C) 25(F), -4(C) 45% 10 CLR N/A N/A N/A 39 F N/A 3578
17/11/24 16:39 170 09 N/A N/A 29.90 44(F), 7(C) 25(F), -4(C) 45% 10 CLR N/A N/A N/A 39 F N/A 3577
17/11/24 16:38 160 08 N/A N/A 29.90 44(F), 7(C) 25(F), -4(C) 45% 10 CLR N/A N/A N/A 39 F N/A 3576
17/11/24 16:37 160 09 N/A N/A 29.90 44(F), 7(C) 25(F), -4(C) 45% 10 CLR N/A N/A N/A 39 F N/A 3575
17/11/24 16:36 180 09 N/A N/A 29.90 44(F), 7(C) 25(F), -4(C) 45% 10 CLR N/A N/A N/A 39 F N/A 3574
17/11/24 16:35 180 08 N/A N/A 29.90 43(F), 6(C) 25(F), -4(C) 49% 10 CLR N/A N/A N/A 38 F N/A 3573
17/11/24 16:34 180 09 N/A N/A 29.90 43(F), 6(C) 25(F), -4(C) 49% 10 CLR N/A N/A N/A 38 F N/A 3572
17/11/24 16:33 170 09 N/A N/A 29.90 43(F), 6(C) 25(F), -4(C) 49% 10 CLR N/A N/A N/A 38 F N/A 3571
17/11/24 16:32 170 08 N/A N/A 29.90 43(F), 6(C) 25(F), -4(C) 49% 10 CLR N/A N/A N/A 38 F N/A 3570
17/11/24 16:31 180 07 N/A N/A 29.90 43(F), 6(C) 25(F), -4(C) 49% 10 CLR N/A N/A N/A 39 F N/A 3569
17/11/24 16:30 190 06 N/A N/A 29.90 43(F), 6(C) 26(F), -3(C) 52% 10 CLR N/A N/A N/A 39 F N/A 3568